Weather reports worldwide

Advertisment
Quincy, il, United States of America (2074050): temperature & dewpoint: 18.04.2019 02:00:00 - 24.04.2019 02:00:00 (CDT)Quincy, il, United States of America (2074050): wind speed & gusts: 18.04.2019 02:00:00 - 24.04.2019 02:00:00 (CDT)Quincy, il, United States of America (2074050): wind direction: 18.04.2019 02:00:00 - 24.04.2019 02:00:00 (CDT)Quincy, il, United States of America (2074050): reduced air pressure: 18.04.2019 02:00:00 - 24.04.2019 02:00:00 (CDT)Quincy, il, United States of America (2074050): visibility: 18.04.2019 02:00:00 - 24.04.2019 02:00:00 (CDT)Quincy, il, United States of America (2074050): precipitation: 18.04.2019 02:00:00 - 24.04.2019 02:00:00 (CDT)
Date & Time tt [°C] td [°C] ff [km/h] ff [kn] fx [km/h] fx [kn] dd ppp [hPa] vv [km] rr [mm]
24.04.2019 02:00:00 - - - - - - - - - -
24.04.2019 01:00:00 11,7 9,4 9 5 - - E 1015,0 15 -
24.04.2019 00:00:00 11,7 9,4 8 4 - - E 1015,9 15 -
23.04.2019 23:00:00 12,2 9,4 8 4 - - ENE 1016,2 16 -
23.04.2019 22:00:00 12,2 9,4 5 3 - - ENE 1016,8 15 -
23.04.2019 21:00:00 12,8 8,9 5 3 - - ENE 1016,8 13 -
23.04.2019 20:00:00 12,2 8,9 18 10 - - NNE 1015,4 11 -
23.04.2019 19:00:00 13,3 8,9 9 5 - - NE 1016,9 16 -
23.04.2019 18:00:00 13,3 8,9 5 3 - - NW 1017,9 16 -
23.04.2019 17:00:00 13,9 8,9 8 4 - - N 1017,3 16 -
23.04.2019 16:00:00 13,3 8,9 8 4 - - NE 1017,4 16 -
23.04.2019 15:00:00 13,3 8,3 11 6 - - NNE 1017,8 16 -
23.04.2019 14:00:00 13,3 8,3 5 3 - - NNW 1018,1 16 -
23.04.2019 13:00:00 12,8 8,3 9 5 - - NNW 1018,4 16 -
23.04.2019 12:00:00 12,2 7,8 11 6 - - NNW 1018,7 16 -
23.04.2019 11:00:00 11,7 7,8 13 7 - - NW 1018,7 16 -
23.04.2019 10:00:00 11,7 7,8 15 8 - - NW 1018,1 16 -
23.04.2019 09:00:00 11,7 8,3 11 6 - - WNW 1017,8 16 -
23.04.2019 08:00:00 11,1 8,3 13 7 - - NW 1017,4 16 -
23.04.2019 07:00:00 11,1 8,3 15 8 - - NW 1016,7 16 -
23.04.2019 06:00:00 11,7 7,8 21 11 - - NW 1015,9 16 -
23.04.2019 05:00:00 11,7 8,3 18 10 - - WNW 1015,8 16 -
23.04.2019 04:00:00 12,2 8,9 22 12 - - NW 1015,4 16 -
23.04.2019 03:00:00 12,8 8,9 26 14 - - WNW 1015,1 16 -
23.04.2019 02:00:00 13,3 9,4 26 14 - - WNW 1015,0 16 -
23.04.2019 01:00:00 13,3 10,0 22 12 - - WNW 1014,9 16 -
23.04.2019 00:00:00 15,0 10,6 26 14 - - NW 1014,4 16 -
22.04.2019 23:00:00 17,2 11,7 22 12 - - WNW 1014,4 16 -
22.04.2019 22:00:00 20,6 15,0 18 10 - - W 1013,4 16 -
22.04.2019 21:00:00 20,6 15,0 15 8 - - WSW 1012,5 16 -
22.04.2019 20:00:00 21,7 15,0 18 10 - - SW 1011,9 16 -
22.04.2019 19:00:00 23,9 14,4 21 11 - - WSW 1011,8 16 -
22.04.2019 18:00:00 25,0 15,0 24 13 - - WSW 1011,6 16 -
22.04.2019 17:00:00 23,9 15,0 24 13 - - SW 1011,7 16 -
22.04.2019 16:00:00 24,4 15,0 28 15 - - SW 1011,7 16 -
22.04.2019 15:00:00 23,9 14,4 22 12 - - SSW 1012,5 16 -
22.04.2019 14:00:00 24,4 13,9 24 13 - - SSW 1012,7 16 -
22.04.2019 13:00:00 23,9 14,4 26 14 - - S 1013,3 16 -
22.04.2019 12:00:00 21,1 13,3 22 12 - - S 1013,5 16 0,5
22.04.2019 11:00:00 19,4 11,7 21 11 - - SSE 1013,9 16 0,0
22.04.2019 10:00:00 20,0 10,6 26 14 - - S 1013,5 16 -
22.04.2019 09:00:00 19,4 10,0 26 14 - - SSE 1013,4 16 -
22.04.2019 08:00:00 19,4 10,0 21 11 - - S 1013,9 10 -
22.04.2019 07:00:00 18,3 9,4 21 11 - - S 1014,3 16 -
22.04.2019 06:00:00 17,8 9,4 16 9 - - S 1014,3 16 -
22.04.2019 05:00:00 18,3 9,4 13 7 - - S 1014,5 16 -
22.04.2019 04:00:00 18,3 9,4 16 9 - - SSW 1014,6 16 -
22.04.2019 03:00:00 19,4 8,3 16 9 - - S 1013,9 16 -
22.04.2019 02:00:00 20,0 8,3 18 10 - - S 1014,1 16 -
22.04.2019 01:00:00 20,6 7,8 28 15 57 31 SSE 1012,8 16 -
22.04.2019 00:00:00 20,6 7,2 21 11 - - SSE 1013,2 16 -
21.04.2019 23:00:00 20,0 7,2 18 10 - - SSE 1013,3 16 -
21.04.2019 22:00:00 20,6 7,2 22 12 - - SE 1013,0 16 -
21.04.2019 21:00:00 18,9 7,8 15 8 - - SSE 1013,0 16 -
21.04.2019 20:00:00 20,6 7,8 16 9 - - SE 1012,5 16 -
21.04.2019 19:00:00 23,3 7,8 18 10 - - SSE 1012,0 16 -
21.04.2019 18:00:00 24,4 7,2 24 13 - - SSE 1012,4 16 -
21.04.2019 17:00:00 25,0 7,8 22 12 - - SSE 1011,9 16 -
21.04.2019 16:00:00 26,7 7,8 21 11 - - S 1012,3 16 -
21.04.2019 15:00:00 26,1 7,2 29 16 - - SSE 1012,9 16 -
21.04.2019 14:00:00 25,6 7,8 26 14 - - SSE 1013,5 16 -
21.04.2019 13:00:00 25,0 7,8 24 13 - - S 1013,9 16 -
21.04.2019 12:00:00 23,3 7,2 21 11 - - S 1014,5 16 -
21.04.2019 11:00:00 21,7 6,7 21 11 - - S 1014,7 16 -
21.04.2019 10:00:00 19,4 5,0 16 9 - - S 1014,6 16 -
21.04.2019 09:00:00 16,7 4,4 18 10 - - SSW 1014,6 16 -
21.04.2019 08:00:00 13,9 1,7 11 6 - - S 1014,0 16 -
21.04.2019 07:00:00 11,7 1,1 11 6 - - S 1013,4 16 -
21.04.2019 06:00:00 10,0 1,1 11 6 - - S 1012,9 16 -
21.04.2019 05:00:00 11,1 0,0 9 5 - - S 1012,8 16 -
21.04.2019 04:00:00 11,1 0,6 11 6 - - S 1012,8 16 -
21.04.2019 03:00:00 12,2 0,0 9 5 - - S 1012,5 16 -
21.04.2019 02:00:00 11,7 0,0 8 4 - - S 1012,3 16 -
21.04.2019 01:00:00 11,1 0,6 9 5 - - S 1012,0 16 -
21.04.2019 00:00:00 13,3 -1,1 9 5 - - S 1011,8 16 -
20.04.2019 23:00:00 11,7 1,1 8 4 - - S 1011,7 16 -
20.04.2019 22:00:00 14,4 -0,6 9 5 - - S 1011,5 16 -
20.04.2019 21:00:00 13,9 1,7 5 3 - - SSE 1011,3 16 -
20.04.2019 20:00:00 17,8 -1,1 5 3 - - SSE 1011,0 16 -
20.04.2019 19:00:00 20,0 -3,3 0 0 - - N 1010,9 16 -
20.04.2019 18:00:00 19,4 -1,7 8 4 - - W 1011,0 16 -
20.04.2019 17:00:00 19,4 -1,7 - - - - - 1011,3 16 -
20.04.2019 16:00:00 19,4 -2,8 11 6 - - NW 1011,7 16 -
20.04.2019 15:00:00 18,3 -2,8 15 8 - - WNW 1012,3 16 -
20.04.2019 14:00:00 17,8 -4,4 13 7 - - NW 1012,7 16 -
20.04.2019 13:00:00 17,2 -3,3 8 4 - - - 1013,1 16 -
20.04.2019 12:00:00 16,7 -3,3 15 8 - - NNW 1014,0 16 -
20.04.2019 11:00:00 15,0 -3,3 15 8 - - N 1014,3 16 -
20.04.2019 10:00:00 12,8 -2,8 13 7 - - N 1014,2 16 -
20.04.2019 09:00:00 10,0 -2,8 18 10 - - N 1014,0 16 -
20.04.2019 08:00:00 6,7 -0,6 11 6 - - NNW 1013,5 16 -
20.04.2019 07:00:00 2,8 -1,7 13 7 - - NNW 1012,9 16 -
20.04.2019 06:00:00 2,2 -2,2 13 7 - - NNW 1012,4 16 -
20.04.2019 05:00:00 3,9 -1,7 15 8 - - NNW 1012,3 16 -
20.04.2019 04:00:00 3,9 -2,2 15 8 - - NNW 1012,0 16 -
20.04.2019 03:00:00 4,4 -1,7 16 9 - - NNW 1012,3 16 -
20.04.2019 02:00:00 6,1 -1,7 16 9 - - NW 1012,7 16 -
20.04.2019 01:00:00 6,1 -1,1 16 9 - - NNW 1012,6 16 -
20.04.2019 00:00:00 6,7 -1,7 15 8 - - N 1012,5 16 -
19.04.2019 23:00:00 7,8 -1,7 15 8 - - NNW 1012,3 16 -
19.04.2019 22:00:00 7,2 -1,7 15 8 - - NNW 1012,3 16 -
19.04.2019 21:00:00 11,1 -3,9 18 10 - - N 1011,7 16 -
19.04.2019 20:00:00 12,2 -4,4 24 13 - - N 1011,3 16 -
19.04.2019 19:00:00 13,9 -3,9 37 20 61 33 N 1010,8 16 -
19.04.2019 18:00:00 15,0 -4,4 39 21 65 35 N 1010,7 16 -
19.04.2019 17:00:00 15,6 -1,7 41 22 63 34 N 1010,8 16 -
19.04.2019 16:00:00 15,0 -1,7 39 21 59 32 N 1010,8 16 -
19.04.2019 15:00:00 14,4 -0,6 42 23 65 35 N 1011,4 16 -
19.04.2019 14:00:00 13,3 0,0 37 20 63 34 N 1011,7 16 -
19.04.2019 13:00:00 12,8 1,7 31 17 54 29 N 1012,1 16 -
19.04.2019 12:00:00 11,7 2,8 37 20 55 30 N 1012,6 16 -
19.04.2019 11:00:00 9,4 2,8 35 19 50 27 N 1012,9 16 -
19.04.2019 10:00:00 8,9 3,3 31 17 52 28 N 1013,2 16 -
19.04.2019 09:00:00 7,8 2,8 28 15 - - N 1012,6 16 -
19.04.2019 08:00:00 7,2 2,2 26 14 - - N 1012,0 16 -
19.04.2019 07:00:00 6,7 1,7 29 16 - - N 1011,3 16 -
19.04.2019 06:00:00 7,2 1,7 29 16 - - N 1010,6 16 -
19.04.2019 05:00:00 7,2 2,2 28 15 - - N 1010,2 10 -
19.04.2019 04:00:00 7,2 2,8 22 12 - - N 1010,0 16 -
19.04.2019 03:00:00 7,8 2,8 18 10 - - N 1010,0 16 -
19.04.2019 02:00:00 7,8 2,8 21 11 - - N 1010,3 16 -
19.04.2019 01:00:00 8,3 2,8 24 13 - - N 1010,1 16 -
19.04.2019 00:00:00 8,3 3,9 21 11 - - N 1009,8 16 -
18.04.2019 23:00:00 8,9 3,3 18 10 - - N 1009,8 16 -
18.04.2019 22:00:00 9,4 3,3 21 11 - - N 1009,6 16 -
18.04.2019 21:00:00 10,0 3,3 21 11 - - N 1009,5 16 -
18.04.2019 20:00:00 10,6 3,3 26 14 - - N 1008,6 16 -
18.04.2019 19:00:00 11,1 3,9 24 13 - - N 1008,9 16 -
18.04.2019 18:00:00 12,2 4,4 24 13 - - N - 16 -
18.04.2019 17:00:00 11,7 5,0 21 11 - - NNW 1008,3 16 -
18.04.2019 16:00:00 11,7 5,0 26 14 - - NNW 1007,7 16 -
18.04.2019 15:00:00 10,0 4,4 31 17 - - NW 1008,0 16 -
18.04.2019 14:00:00 9,4 4,4 29 16 - - NW 1008,1 16 -
18.04.2019 13:00:00 8,9 4,4 28 15 - - NNW 1007,8 16 -
18.04.2019 12:00:00 8,3 4,4 34 18 - - NW 1007,8 16 -
18.04.2019 11:00:00 7,8 4,4 31 17 50 27 NW 1007,3 16 -
18.04.2019 10:00:00 7,8 5,6 28 15 - - NW 1006,2 16 -
18.04.2019 09:00:00 8,3 5,6 28 15 - - NW 1006,2 16 0,0
18.04.2019 08:00:00 8,3 6,7 24 13 - - NW 1005,2 11 1,0
18.04.2019 07:00:00 8,3 6,7 21 11 - - NNW 1004,0 8 0,3
18.04.2019 06:00:00 - - - - - - - - - -
18.04.2019 05:00:00 11,1 9,4 24 13 - - NW 1003,5 15 0,0
18.04.2019 04:00:00 11,7 10,0 18 10 - - N 1002,2 13 1,3
18.04.2019 03:00:00 12,2 11,1 22 12 - - NNW 1003,9 6 0,5
18.04.2019 02:00:00 13,9 12,8 16 9 - - N 1003,9 4,8 1,8

tt = temperature
td = dewpoint
ff = wind speed
fx = gusts
dd = wind direction
ppp = reduced air pressure
vv = visibility
rr = precipitation

Next stations